Total_Precipitation_Accumulation
0.38 0.47 0.54 0.60 0.60 0.54 0.56 0.58 0.58 0.53 0.62 0.68 0.57 0.55 0.64 0.61 0.50 0.40 0.26 0.19 0.15 0.11 0.10 0.10 0.11 0.12 0.15 0.19 0.22 0.28 0.35 0.47 0.61 0.76 0.94 1.15 1.36 1.53
0.51 0.56 0.58 0.63 0.71 0.62 0.61 0.60 0.59 0.61 0.67 0.64 0.51 0.48 0.46 0.36 0.28 0.23 0.14 0.12 0.10 0.09 0.08 0.08 0.09 0.09 0.11 0.13 0.14 0.17 0.20 0.24 0.29 0.35 0.46 0.62 0.84 1.10
0.66 0.70 0.73 0.74 0.76 0.74 0.77 0.71 0.61 0.64 0.61 0.51 0.52 0.51 0.42 0.31 0.19 0.15 0.10 0.08 0.07 0.08 0.09 0.10 0.09 0.08 0.09 0.10 0.12 0.13 0.14 0.15 0.18 0.20 0.22 0.27 0.34 0.46
0.74 0.96 0.98 0.98 0.88 0.80 0.87 0.81 0.71 0.77 0.70 0.57 0.58 0.52 0.46 0.36 0.25 0.19 0.11 0.07 0.04 0.07 0.07 0.08 0.08 0.07 0.06 0.06 0.07 0.08 0.08 0.07 0.08 0.09 0.08 0.10 0.12 0.16
0.76 0.88 1.01 1.12 1.01 0.91 0.88 0.86 0.84 0.88 0.78 0.63 0.62 0.62 0.55 0.39 0.28 0.18 0.12 0.08 0.04 0.05 0.05 0.05 0.06 0.06 0.05 0.05 0.04 0.04 0.04 0.05 0.06 0.06 0.05 0.05 0.05 0.05
0.67 0.62 0.73 0.99 1.09 1.00 0.89 0.83 0.84 0.85 0.76 0.70 0.69 0.70 0.61 0.49 0.34 0.22 0.16 0.09 0.05 0.03 0.03 0.03 0.03 0.03 0.03 0.03 0.03 0.04 0.05 0.05 0.05 0.05 0.05 0.05 0.04 0.03
0.37 0.36 0.42 0.61 0.89 1.05 1.00 0.89 0.85 0.79 0.74 0.72 0.72 0.68 0.61 0.55 0.39 0.25 0.17 0.12 0.07 0.04 0.03 0.02 0.02 0.01 0.01 0.01 0.01 0.01 0.02 0.02 0.03 0.04 0.04 0.04 0.03 0.03
0.23 0.25 0.25 0.28 0.40 0.64 0.85 0.96 0.99 0.90 0.79 0.74 0.77 0.71 0.58 0.51 0.39 0.23 0.14 0.10 0.10 0.08 0.06 0.06 0.04 0.02 0.01 0.00 0.00 0.00 0.01 0.01 0.01 0.01 0.01 0.01 0.01 0.01
0.22 0.23 0.18 0.16 0.23 0.30 0.44 0.59 0.75 0.81 0.80 0.78 0.76 0.75 0.67 0.58 0.46 0.29 0.17 0.11 0.08 0.07 0.06 0.07 0.03 0.02 0.01 0.00 0.00 0.00 0.00 0.00 0.00 0.00 0.00 0.00 0.00 0.00
0.23 0.23 0.20 0.18 0.19 0.24 0.30 0.34 0.42 0.51 0.55 0.58 0.64 0.69 0.70 0.65 0.55 0.42 0.26 0.15 0.10 0.07 0.05 0.06 0.04 0.03 0.02 0.01 0.00 0.00 0.00 0.00 0.00 0.00 0.00 0.00 0.00 0.00
0.23 0.23 0.23 0.22 0.19 0.16 0.23 0.28 0.31 0.36 0.43 0.49 0.53 0.60 0.66 0.65 0.59 0.44 0.27 0.14 0.10 0.08 0.04 0.04 0.04 0.05 0.06 0.03 0.01 0.00 0.00 0.00 0.00 0.00 0.00 0.00 0.01 0.01
0.34 0.32 0.25 0.24 0.22 0.14 0.17 0.22 0.25 0.29 0.33 0.36 0.42 0.47 0.46 0.48 0.53 0.41 0.26 0.13 0.08 0.07 0.04 0.02 0.03 0.03 0.05 0.03 0.01 0.00 0.00 0.00 0.00 0.00 0.00 0.01 0.02 0.02
0.45 0.43 0.38 0.26 0.18 0.14 0.16 0.21 0.20 0.25 0.32 0.36 0.37 0.42 0.45 0.43 0.40 0.39 0.29 0.16 0.09 0.05 0.02 0.01 0.02 0.02 0.01 0.01 0.00 0.00 0.00 0.00 0.00 0.00 0.00 0.01 0.01 0.04
0.58 0.58 0.55 0.41 0.27 0.20 0.17 0.17 0.16 0.19 0.30 0.37 0.42 0.42 0.43 0.42 0.37 0.35 0.33 0.24 0.14 0.08 0.04 0.02 0.02 0.01 0.01 0.00 0.00 0.00 0.00 0.00 0.00 0.01 0.01 0.01 0.01 0.05
0.61 0.68 0.61 0.50 0.42 0.31 0.25 0.20 0.17 0.16 0.24 0.32 0.37 0.40 0.38 0.35 0.36 0.38 0.38 0.30 0.21 0.15 0.09 0.04 0.02 0.01 0.01 0.00 0.00 0.00 0.00 0.00 0.00 0.00 0.01 0.01 0.02 0.04
0.55 0.56 0.56 0.56 0.55 0.50 0.38 0.29 0.20 0.19 0.22 0.26 0.32 0.40 0.44 0.42 0.39 0.33 0.32 0.28 0.21 0.17 0.12 0.06 0.03 0.02 0.01 0.00 0.00 0.00 0.00 0.00 0.00 0.00 0.00 0.01 0.02 0.03
0.58 0.64 0.62 0.64 0.63 0.61 0.53 0.41 0.32 0.29 0.27 0.28 0.34 0.42 0.44 0.41 0.36 0.30 0.25 0.19 0.14 0.11 0.09 0.07 0.04 0.02 0.01 0.01 0.00 0.00 0.00 0.00 0.00 0.00 0.00 0.00 0.01 0.03
0.48 0.62 0.69 0.69 0.69 0.67 0.63 0.54 0.46 0.38 0.31 0.31 0.36 0.41 0.42 0.38 0.33 0.27 0.24 0.19 0.12 0.08 0.06 0.05 0.04 0.03 0.02 0.01 0.00 0.00 0.00 0.00 0.00 0.00 0.00 0.00 0.01 0.02
0.35 0.48 0.58 0.62 0.66 0.70 0.68 0.59 0.53 0.45 0.38 0.36 0.40 0.42 0.42 0.37 0.31 0.23 0.21 0.19 0.14 0.09 0.06 0.04 0.03 0.03 0.02 0.01 0.00 0.00 0.00 0.00 0.00 0.00 0.00 0.00 0.00 0.00
0.26 0.33 0.43 0.52 0.61 0.70 0.71 0.65 0.61 0.56 0.46 0.41 0.45 0.46 0.42 0.37 0.30 0.23 0.17 0.15 0.12 0.10 0.07 0.05 0.03 0.02 0.01 0.01 0.01 0.00 0.00 0.00 0.00 0.00 0.00 0.00 0.00 0.00
0.21 0.25 0.31 0.40 0.52 0.63 0.69 0.69 0.69 0.60 0.48 0.43 0.45 0.48 0.42 0.36 0.29 0.22 0.18 0.16 0.11 0.09 0.08 0.06 0.03 0.02 0.01 0.01 0.01 0.00 0.00 0.00 0.00 0.00 0.00 0.00 0.00 0.00
0.25 0.26 0.28 0.35 0.45 0.56 0.63 0.66 0.68 0.61 0.50 0.44 0.42 0.46 0.44 0.36 0.28 0.22 0.18 0.16 0.10 0.08 0.07 0.06 0.04 0.02 0.02 0.01 0.01 0.00 0.00 0.00 0.00 0.00 0.00 0.00 0.00 0.00
0.29 0.28 0.28 0.32 0.39 0.49 0.53 0.55 0.59 0.56 0.47 0.41 0.40 0.42 0.44 0.38 0.31 0.23 0.19 0.15 0.10 0.08 0.08 0.07 0.05 0.03 0.02 0.01 0.01 0.00 0.00 0.00 0.00 0.00 0.00 0.00 0.00 0.00